• In Spain
  • List of Countries
  • For 7 days
  • Water Temperature
  • Satellite Maps
  • Weather Map
  • Weather Widgets
  • user-avatar
    Login

    Hourly Weather Canillo

    Today, 17 December, Sunday

    Time Temperature Precipitation Wind Pressure Humidity
    00:00 -9°C° 0.1 mm 3 mps 618 mmHg 77%
    01:00 -9°C° 0 mm 3 mps 618 mmHg 77%
    02:00 -10°C° 0 mm 3 mps 618 mmHg 76%
    03:00 -10°C° 0 mm 3 mps 619 mmHg 76%
    04:00 -10°C° 0 mm 3 mps 619 mmHg 75%
    05:00 -10°C° 0 mm 3 mps 619 mmHg 74%
    06:00 -12°C° 0 mm 3 mps 619 mmHg 73%
    07:00 -10°C° 0 mm 3 mps 620 mmHg 70%
    08:00 -9°C° 0 mm 3 mps 620 mmHg 67%
    09:00 -8°C° 0 mm 3 mps 621 mmHg 64%
    10:00 -6°C° 0 mm 3 mps 622 mmHg 61%
    11:00 -5°C° 0 mm 3 mps 622 mmHg 57%
    12:00 -2°C° 0 mm 3 mps 623 mmHg 54%
    13:00 -4°C° 0 mm 3 mps 623 mmHg 58%
    14:00 -4°C° 0 mm 3 mps 622 mmHg 61%
    15:00 -4°C° 0 mm 3 mps 622 mmHg 64%
    16:00 -5°C° 0 mm 3 mps 622 mmHg 69%
    17:00 -5°C° 0 mm 3 mps 622 mmHg 74%
    18:00 -6°C° 0 mm 3 mps 622 mmHg 78%
    19:00 -6°C° 0 mm 3 mps 622 mmHg 79%
    20:00 -6°C° 0 mm 3 mps 623 mmHg 80%
    21:00 -6°C° 0 mm 3 mps 623 mmHg 81%
    22:00 -6°C° 0 mm 3 mps 623 mmHg 81%
    23:00 -6°C° 0 mm 3 mps 624 mmHg 82%

    Tomorrow, 18 December, Monday

    Time Temperature Precipitation Wind Pressure Humidity
    00:00 -6°C° 0 mm 3 mps 624 mmHg 82%
    01:00 -6°C° 0 mm 3 mps 624 mmHg 83%
    02:00 -6°C° 0 mm 3 mps 623 mmHg 83%
    03:00 -6°C° 0 mm 3 mps 623 mmHg 84%
    04:00 -7°C° 0 mm 3 mps 623 mmHg 83%
    05:00 -7°C° 0 mm 3 mps 623 mmHg 83%
    06:00 -7°C° 0 mm 3 mps 623 mmHg 83%
    07:00 -6°C° 0 mm 3 mps 623 mmHg 80%
    08:00 -5°C° 0 mm 3 mps 624 mmHg 76%
    09:00 -4°C° 0 mm 3 mps 625 mmHg 73%
    10:00 -2°C° 0 mm 3 mps 625 mmHg 71%
    11:00 0°C° 0 mm 3 mps 625 mmHg 69%
    12:00 +1°C° 0 mm 3 mps 625 mmHg 67%
    13:00 +1°C° 0 mm 3 mps 625 mmHg 69%
    14:00 0°C° 0 mm 3 mps 624 mmHg 70%
    15:00 0°C° 0 mm 3 mps 623 mmHg 72%
    16:00 0°C° 0.2 mm 3 mps 623 mmHg 76%
    17:00 -1°C° 0.2 mm 3 mps 623 mmHg 80%
    18:00 -2°C° 0.2 mm 3 mps 622 mmHg 84%
    19:00 -2°C° 0.3 mm 4 mps 622 mmHg 85%
    20:00 -2°C° 0.3 mm 4 mps 622 mmHg 86%
    21:00 -2°C° 0.3 mm 4 mps 622 mmHg 86%
    22:00 -2°C° 0.2 mm 4 mps 622 mmHg 87%
    23:00 -2°C° 0.2 mm 4 mps 622 mmHg 87%

    Day after tomorrow, 19 December, Tuesday

    Time Temperature Precipitation Wind Pressure Humidity
    00:00 -2°C° 0.2 mm 4 mps 622 mmHg 88%
    01:00 -3°C° 0.1 mm 4 mps 622 mmHg 88%
    02:00 -3°C° 0.1 mm 4 mps 622 mmHg 88%
    03:00 -4°C° 0.1 mm 4 mps 622 mmHg 89%
    04:00 -4°C° 0 mm 4 mps 622 mmHg 89%
    05:00 -5°C° 0 mm 3 mps 622 mmHg 89%
    06:00 -6°C° 0 mm 3 mps 622 mmHg 89%
    07:00 -5°C° 0 mm 3 mps 623 mmHg 86%
    08:00 -5°C° 0 mm 3 mps 623 mmHg 83%
    09:00 -5°C° 0 mm 3 mps 624 mmHg 79%
    10:00 -4°C° 0 mm 3 mps 624 mmHg 73%
    11:00 -1°C° 0 mm 2 mps 625 mmHg 66%
    12:00 +1°C° 0 mm 2 mps 626 mmHg 60%
    13:00 -1°C° 0 mm 2 mps 625 mmHg 62%
    14:00 -1°C° 0 mm 2 mps 625 mmHg 63%
    15:00 -1°C° 0 mm 2 mps 625 mmHg 65%
    16:00 -3°C° 0 mm 2 mps 625 mmHg 71%
    17:00 -5°C° 0 mm 2 mps 624 mmHg 76%
    18:00 -6°C° 0 mm 2 mps 624 mmHg 81%
    19:00 -7°C° 0 mm 2 mps 624 mmHg 79%
    20:00 -7°C° 0 mm 2 mps 624 mmHg 77%
    21:00 -7°C° 0 mm 2 mps 625 mmHg 75%
    22:00 -7°C° 0 mm 2 mps 625 mmHg 73%
    23:00 -7°C° 0 mm 2 mps 625 mmHg 72%

    20 December, Wednesday

    Time Temperature Precipitation Wind Pressure Humidity
    00:00 -7°C° 0 mm 2 mps 625 mmHg 71%
    01:00 -7°C° 0 mm 2 mps 625 mmHg 69%
    02:00 -7°C° 0 mm 2 mps 625 mmHg 67%
    03:00 -6°C° 0 mm 2 mps 625 mmHg 65%
    04:00 -6°C° 0 mm 2 mps 625 mmHg 66%
    05:00 -6°C° 0 mm 2 mps 625 mmHg 66%
    06:00 -6°C° 0 mm 2 mps 625 mmHg 67%
    07:00 -5°C° 0 mm 2 mps 626 mmHg 65%
    08:00 -4°C° 0 mm 2 mps 626 mmHg 63%
    09:00 -2°C° 0 mm 2 mps 627 mmHg 60%
    10:00 -1°C° 0 mm 2 mps 627 mmHg 60%
    11:00 +2°C° 0 mm 2 mps 627 mmHg 59%
    12:00 +2°C° 0 mm 3 mps 628 mmHg 58%
    13:00 +2°C° 0 mm 3 mps 627 mmHg 61%
    14:00 +1°C° 0 mm 3 mps 627 mmHg 64%
    15:00 +1°C° 0 mm 3 mps 627 mmHg 67%
    16:00 -1°C° 0 mm 3 mps 626 mmHg 70%
    17:00 -2°C° 0 mm 3 mps 626 mmHg 73%
    18:00 -5°C° 0 mm 3 mps 626 mmHg 75%
    19:00 -5°C° 0 mm 3 mps 626 mmHg 75%
    20:00 -5°C° 0 mm 3 mps 626 mmHg 74%
    21:00 -5°C° 0 mm 3 mps 626 mmHg 74%
    22:00 -5°C° 0 mm 3 mps 627 mmHg 74%
    23:00 -4°C° 0 mm 2 mps 627 mmHg 74%

    21 December, Thursday

    Time Temperature Precipitation Wind Pressure Humidity
    00:00 -4°C° 0 mm 2 mps 627 mmHg 74%
    01:00 -4°C° 0 mm 2 mps 627 mmHg 73%
    02:00 -4°C° 0 mm 2 mps 627 mmHg 73%
    03:00 -4°C° 0 mm 2 mps 627 mmHg 72%
    04:00 -4°C° 0 mm 2 mps 627 mmHg 72%
    05:00 -4°C° 0 mm 2 mps 627 mmHg 71%
    06:00 -4°C° 0 mm 2 mps 627 mmHg 71%
    07:00 -3°C° 0 mm 2 mps 628 mmHg 68%
    08:00 -2°C° 0 mm 2 mps 628 mmHg 65%
    09:00 -1°C° 0 mm 2 mps 629 mmHg 63%
    10:00 +2°C° 0 mm 2 mps 630 mmHg 61%
    11:00 +4°C° 0 mm 1 mps 630 mmHg 59%
    12:00 +6°C° 0 mm 1 mps 631 mmHg 57%
    13:00 +5°C° 0 mm 1 mps 630 mmHg 60%
    14:00 +5°C° 0 mm 1 mps 630 mmHg 62%
    15:00 +4°C° 0 mm 1 mps 629 mmHg 65%
    16:00 +3°C° 0 mm 1 mps 629 mmHg 68%
    17:00 +1°C° 0 mm 1 mps 628 mmHg 70%
    18:00 -2°C° 0 mm 2 mps 628 mmHg 73%
    19:00 -2°C° 0 mm 2 mps 628 mmHg 70%
    20:00 -2°C° 0 mm 2 mps 628 mmHg 68%
    21:00 -2°C° 0 mm 2 mps 628 mmHg 65%
    22:00 -2°C° 0 mm 2 mps 628 mmHg 65%
    23:00 -3°C° 0 mm 2 mps 628 mmHg 65%

    22 December, Friday

    Time Temperature Precipitation Wind Pressure Humidity
    00:00 -3°C° 0 mm 2 mps 628 mmHg 65%
    01:00 -3°C° 0 mm 2 mps 628 mmHg 66%
    02:00 -3°C° 0 mm 2 mps 628 mmHg 67%
    03:00 -3°C° 0 mm 2 mps 628 mmHg 68%
    04:00 -3°C° 0 mm 2 mps 628 mmHg 70%
    05:00 -4°C° 0 mm 3 mps 628 mmHg 71%
    06:00 -4°C° 0 mm 3 mps 628 mmHg 73%
    07:00 -2°C° 0 mm 3 mps 628 mmHg 72%
    08:00 -2°C° 0 mm 3 mps 629 mmHg 71%
    09:00 -1°C° 0 mm 3 mps 630 mmHg 71%
    10:00 0°C° 0 mm 3 mps 630 mmHg 69%
    11:00 +2°C° 0 mm 3 mps 630 mmHg 66%
    12:00 +3°C° 0 mm 3 mps 631 mmHg 64%
    13:00 +2°C° 0 mm 3 mps 630 mmHg 67%
    14:00 +2°C° 0 mm 3 mps 630 mmHg 69%
    15:00 +2°C° 0 mm 3 mps 630 mmHg 72%
    16:00 0°C° 0 mm 3 mps 629 mmHg 76%
    17:00 -1°C° 0 mm 3 mps 629 mmHg 79%
    18:00 -2°C° 0 mm 3 mps 628 mmHg 83%
    19:00 -2°C° 0 mm 3 mps 628 mmHg 82%
    20:00 -4°C° 0 mm 3 mps 628 mmHg 82%
    21:00 -4°C° 0 mm 3 mps 629 mmHg 82%
    22:00 -4°C° 0 mm 3 mps 628 mmHg 81%
    23:00 -4°C° 0 mm 3 mps 628 mmHg 81%
    Show more